Wetbulb
72.34 74.56 78.01 79.08 78.74 78.14 78.00 77.74 78.46 78.36 78.07 78.04 78.26 78.06 78.19 77.86 77.61 77.64 77.91 77.84 77.80 77.73 77.54 77.21 77.05 77.00 77.28 76.76 76.67 76.71 76.47 76.70 76.34 75.94 75.97 75.76 75.70 75.57 75.30 75.36 74.78 74.87 76.59
73.08 75.33 77.76 78.53 78.83 78.74 78.38 78.47 78.11 78.19 78.10 77.94 77.76 78.20 78.12 78.04 76.88 76.97 77.73 77.57 76.71 77.64 77.09 76.98 77.03 77.05 77.24 76.97 76.99 76.65 76.29 76.35 76.08 75.81 75.87 75.92 75.66 74.86 74.68 75.52 74.42 76.02 76.33
73.00 74.48 77.20 77.89 78.57 78.40 77.90 78.43 77.96 78.03 77.64 77.90 78.07 77.78 77.72 77.94 77.97 77.16 76.97 76.94 77.03 76.97 77.32 77.09 76.56 76.89 76.69 76.42 76.72 76.71 76.40 75.66 74.81 76.09 76.81 75.33 74.03 75.23 74.95 75.20 75.63 75.78 75.85
73.58 74.40 76.81 77.73 78.09 78.34 77.95 78.08 78.36 77.80 77.84 77.80 77.90 77.90 77.87 77.31 76.97 77.17 76.59 76.28 76.67 76.37 76.20 76.37 76.62 76.72 76.74 76.65 76.54 76.46 75.94 74.79 74.95 75.75 75.57 74.38 74.83 75.98 75.63 75.02 75.22 74.66 75.16
73.34 76.00 76.39 78.36 78.88 78.28 78.27 78.32 78.08 77.76 77.78 77.16 77.08 77.06 76.56 76.28 77.27 76.98 76.48 77.51 77.27 77.14 76.78 76.78 76.37 76.06 75.73 75.48 75.53 75.17 75.03 75.51 76.31 77.00 73.41 73.68 75.40 76.14 75.08 74.18 74.12 74.57 75.25
73.58 76.03 77.23 78.18 78.20 78.06 77.87 77.90 77.88 77.62 77.53 76.49 76.53 77.05 77.55 77.21 77.28 77.14 76.99 77.19 76.94 76.75 76.45 76.03 75.75 75.70 75.67 75.67 75.34 75.17 75.36 76.45 77.56 74.70 74.40 72.95 74.39 75.28 75.80 75.36 74.62 73.07 74.02
73.88 76.07 76.75 77.77 77.83 78.07 78.03 77.91 77.71 77.63 76.93 76.22 77.49 77.66 77.45 77.26 77.23 76.97 76.53 76.72 76.47 75.97 75.81 75.78 75.33 75.02 74.85 74.99 74.71 74.89 75.39 76.45 77.05 74.87 74.27 73.45 72.84 75.82 75.28 75.04 75.17 73.51 72.83
74.59 75.56 76.71 77.15 77.85 77.61 77.75 77.79 77.53 77.10 76.25 76.09 77.39 77.13 76.80 77.21 77.18 77.13 76.63 76.44 76.22 75.95 75.59 75.34 75.17 75.08 74.87 74.76 75.04 75.24 75.88 76.34 76.23 75.57 76.00 74.50 74.17 75.11 75.90 75.65 75.61 74.32 74.15
73.69 74.74 76.21 77.33 76.95 77.58 77.63 77.69 77.67 77.57 77.55 77.22 76.99 76.63 76.88 77.07 76.76 76.54 76.65 76.35 76.17 75.34 75.23 74.95 74.89 74.86 74.59 74.69 75.14 75.57 76.22 76.64 74.95 75.49 75.65 74.84 75.02 74.65 75.00 76.38 76.42 75.13 74.91
73.11 74.33 75.11 75.38 77.76 77.07 77.03 77.19 77.03 77.19 77.34 77.27 76.97 76.34 76.28 77.00 76.64 76.17 76.47 75.67 74.98 74.78 74.78 74.77 74.65 74.54 75.16 75.49 75.62 77.04 78.37 78.70 76.21 76.01 75.67 75.58 75.76 74.92 74.54 75.47 76.28 75.73 75.36
70.73 72.44 74.72 75.26 77.15 76.87 76.39 76.58 77.40 77.08 76.70 76.31 75.55 76.12 76.40 75.41 75.91 75.61 75.49 75.26 74.95 75.16 75.72 76.42 76.92 76.97 77.30 78.12 78.16 78.72 78.76 75.91 76.06 75.48 76.26 76.55 75.85 75.45 74.97 75.03 75.57 75.74 75.75
67.28 70.57 72.91 74.13 75.77 75.50 74.79 77.76 76.90 77.09 77.46 77.15 77.22 77.62 77.31 77.20 76.80 76.26 76.50 76.45 76.84 76.98 77.31 77.31 77.14 77.47 77.76 76.26 76.81 78.58 76.61 73.91 73.78 74.08 76.34 77.12 76.34 76.01 75.85 75.28 76.00 75.44 75.81
68.03 69.45 71.88 73.43 75.73 75.08 75.87 75.55 76.14 76.33 76.93 77.67 78.07 78.92 78.02 77.65 77.93 76.28 76.89 76.64 77.64 77.09 75.64 76.91 76.97 76.67 75.77 75.11 74.88 74.65 74.97 74.52 73.48 73.55 76.46 77.36 76.31 75.90 75.95 76.13 75.81 75.81 75.83
70.14 71.05 71.94 73.80 74.47 74.72 75.82 75.95 76.47 75.40 76.63 76.41 77.31 78.37 77.83 76.31 77.06 76.71 75.85 78.05 77.86 76.47 76.59 76.84 75.41 77.13 76.33 76.18 76.28 76.04 75.62 75.19 74.75 74.89 76.55 77.51 76.56 76.43 76.60 76.63 76.93 77.02 77.17
69.98 71.27 71.67 74.47 74.59 74.25 75.67 76.28 76.05 75.46 76.14 76.48 77.26 78.34 78.42 77.80 77.11 77.31 77.26 76.75 76.88 76.40 75.67 77.74 76.20 76.90 76.59 75.42 75.66 75.62 74.24 74.84 75.48 75.49 75.98 78.44 77.69 77.01 76.87 77.02 77.51 77.89 78.02
71.85 71.47 73.15 73.79 73.85 74.02 75.20 75.35 75.89 75.22 76.00 76.62 77.03 77.56 78.34 78.05 79.70 78.73 78.46 77.05 77.43 76.48 76.01 75.78 76.97 76.01 75.83 75.31 74.37 74.53 74.91 74.93 75.00 75.76 76.13 76.96 78.00 77.78 77.80 77.50 77.55 78.01 78.36
71.44 72.82 72.52 73.29 73.45 74.50 74.87 74.11 75.28 74.65 75.54 75.88 76.64 77.46 77.93 78.72 78.80 78.92 77.14 76.55 77.93 79.17 78.17 78.56 77.28 77.32 76.31 74.86 75.30 74.88 74.94 75.37 74.05 74.32 75.27 76.34 76.64 77.77 77.96 77.66 77.39 77.54 77.02
72.49 72.92 73.46 72.63 73.15 74.05 74.63 75.36 74.88 75.26 74.73 75.20 75.50 75.38 76.15 77.82 78.68 78.50 76.43 77.41 78.00 77.35 75.45 76.07 74.90 74.77 74.84 74.45 73.16 72.00 72.72 72.73 73.12 74.33 72.80 73.82 72.68 72.26 77.45 77.82 76.63 76.10 76.81
72.96 73.33 73.15 73.36 72.67 73.39 74.75 74.98 75.19 75.39 74.29 74.15 73.96 73.58 75.97 77.51 77.84 77.57 76.34 76.82 78.80 76.33 75.61 76.21 75.05 75.10 73.62 73.11 71.07 71.88 72.64 72.90 73.99 71.37 73.04 73.56 73.60 72.87 73.10 76.85 76.64 75.81 76.90
73.61 73.33 74.00 73.77 74.58 74.95 74.34 75.23 74.16 73.53 73.65 73.81 73.41 73.59 75.78 77.59 78.49 78.04 76.90 77.27 77.61 75.92 75.92 75.75 76.21 75.05 74.17 72.69 70.55 71.23 71.48 71.43 72.78 73.09 71.90 72.58 72.73 73.23 73.30 73.21 72.26 72.07 76.83
73.79 72.85 73.44 73.97 76.85 74.88 73.88 72.73 72.44 71.44 72.38 72.99 73.46 74.87 76.03 77.60 78.13 78.69 77.27 76.45 76.72 76.10 75.77 77.25 75.74 75.93 73.14 73.44 70.44 69.67 71.20 72.68 72.71 72.59 72.02 72.08 72.58 73.09 73.58 73.01 73.21 72.01 71.93
73.62 73.69 73.43 73.90 75.65 75.14 74.48 75.71 74.44 74.03 73.11 73.53 74.11 75.93 76.88 78.21 78.74 78.43 78.84 77.85 76.95 74.75 75.76 75.83 76.49 73.75 72.04 73.57 70.54 69.56 67.37 69.70 70.11 71.57 71.55 71.43 71.40 72.27 72.18 72.91 73.55 75.00 73.07
73.66 74.30 74.72 76.04 76.32 76.27 76.33 75.52 75.27 74.96 74.58 73.35 73.61 73.90 75.64 77.78 78.31 78.69 79.01 78.79 78.41 76.92 72.98 75.67 75.67 76.08 70.57 72.36 75.70 71.62 67.91 65.79 68.75 70.69 71.79 71.45 73.40 72.05 72.57 73.54 73.77 73.03 74.67
73.07 74.65 75.63 76.73 77.41 77.11 78.16 76.23 77.64 73.72 72.69 72.60 73.99 74.32 76.39 77.78 78.09 78.59 78.89 78.96 79.16 77.29 78.50 76.39 76.06 76.69 77.89 72.94 72.88 74.45 75.89 73.83 70.25 66.67 70.99 72.04 73.73 72.59 73.69 72.38 72.22 72.99 74.77
73.35 73.80 74.92 77.19 77.51 78.22 78.05 77.79 75.52 75.30 73.43 73.06 73.07 78.29 78.55 79.47 78.24 77.65 78.68 78.89 78.89 77.34 78.73 77.34 77.71 78.04 76.64 74.16 72.64 72.30 73.50 73.27 71.87 67.51 64.48 67.44 70.54 69.81 71.22 72.32 70.01 71.26 72.28
73.13 73.55 74.42 76.51 77.68 77.55 77.03 76.57 76.99 77.76 76.20 73.51 75.20 74.36 75.20 75.74 76.46 79.38 78.42 78.92 78.99 78.32 78.65 76.95 78.06 77.64 75.95 75.60 74.60 74.44 71.68 69.13 68.74 67.94 65.86 68.44 68.19 70.42 70.72 71.30 72.14 71.93 70.04
MSLP
1016.03 1015.47 1015.12 1015.04 1015.10 1015.35 1015.41 1015.40 1015.49 1015.66 1015.67 1015.86 1015.89 1016.06 1016.07 1016.13 1016.31 1016.42 1016.48 1016.62 1016.59 1016.60 1016.75 1016.94 1017.06 1017.10 1017.08 1017.13 1017.18 1017.32 1017.36 1017.10 1016.89 1017.05 1016.70 1016.67 1016.98 1017.00 1016.91 1017.58 1017.42 1017.07 1017.27
1016.19 1015.74 1015.57 1015.51 1015.55 1015.61 1015.70 1015.79 1015.98 1016.10 1016.07 1016.17 1016.30 1016.26 1016.35 1016.42 1016.47 1016.65 1016.76 1016.81 1016.99 1016.87 1016.97 1017.11 1017.21 1017.33 1017.36 1017.44 1017.45 1017.49 1017.68 1017.44 1017.11 1017.09 1017.05 1016.79 1017.05 1017.23 1017.14 1017.64 1016.81 1018.06 1017.51
1016.50 1016.17 1015.67 1015.90 1015.84 1015.91 1016.10 1016.13 1016.37 1016.41 1016.40 1016.50 1016.62 1016.64 1016.70 1016.79 1016.85 1016.92 1016.98 1017.08 1017.13 1017.19 1017.27 1017.34 1017.44 1017.55 1017.63 1017.68 1017.69 1017.64 1017.63 1017.53 1017.24 1017.02 1016.98 1016.03 1016.72 1017.38 1017.32 1017.53 1017.86 1017.70 1017.63
1016.61 1016.22 1015.86 1016.17 1016.27 1016.28 1016.44 1016.53 1016.67 1016.66 1016.76 1016.87 1016.91 1016.88 1016.97 1017.14 1017.14 1017.11 1017.28 1017.33 1017.32 1017.45 1017.55 1017.68 1017.69 1017.79 1017.81 1017.87 1017.95 1017.86 1017.79 1017.46 1017.19 1016.82 1016.12 1015.71 1016.56 1017.68 1017.69 1017.61 1017.67 1017.82 1018.07
1016.69 1016.39 1016.41 1016.50 1016.44 1016.54 1016.73 1016.81 1016.91 1016.95 1017.06 1017.14 1017.06 1017.07 1017.19 1017.32 1017.34 1017.41 1017.53 1017.59 1017.60 1017.62 1017.71 1017.86 1017.92 1017.92 1017.96 1017.94 1018.00 1017.97 1017.79 1017.36 1017.12 1016.71 1016.23 1016.20 1016.66 1017.84 1018.03 1018.09 1018.16 1018.26 1018.24
1016.50 1016.29 1016.78 1016.80 1016.89 1016.93 1017.03 1017.12 1017.13 1017.20 1017.23 1017.24 1017.17 1017.28 1017.39 1017.52 1017.55 1017.59 1017.72 1017.79 1017.83 1017.84 1017.84 1017.92 1018.01 1018.00 1018.02 1017.94 1017.88 1017.87 1017.69 1017.20 1016.69 1016.01 1015.98 1016.58 1016.93 1017.85 1018.10 1018.22 1018.32 1018.46 1018.58
1016.59 1016.51 1016.89 1017.17 1017.18 1017.23 1017.27 1017.34 1017.37 1017.40 1017.43 1017.50 1017.50 1017.62 1017.70 1017.73 1017.83 1017.98 1018.05 1018.02 1018.08 1018.06 1018.02 1017.97 1017.96 1017.98 1018.03 1017.91 1017.86 1017.77 1017.56 1017.05 1015.95 1016.10 1016.00 1016.11 1017.31 1017.95 1018.11 1018.25 1018.37 1018.55 1018.65
1016.96 1017.19 1016.92 1017.42 1017.43 1017.58 1017.65 1017.60 1017.69 1017.74 1017.75 1017.83 1017.88 1017.98 1018.06 1018.08 1018.17 1018.21 1018.20 1018.25 1018.16 1018.19 1018.18 1018.10 1018.11 1018.10 1018.04 1017.90 1017.78 1017.62 1017.30 1016.83 1016.18 1015.68 1015.98 1016.22 1017.26 1017.79 1018.03 1018.19 1018.27 1018.39 1018.54
1017.42 1017.43 1017.45 1017.57 1017.67 1017.81 1017.94 1018.12 1018.10 1018.13 1018.07 1018.09 1018.06 1018.23 1018.22 1018.24 1018.33 1018.32 1018.35 1018.39 1018.30 1018.30 1018.26 1018.17 1018.03 1017.92 1017.94 1017.83 1017.64 1017.39 1016.93 1016.69 1016.40 1016.14 1015.34 1016.62 1017.03 1017.40 1017.67 1017.82 1018.03 1018.21 1018.36
1017.67 1017.99 1018.06 1018.02 1017.74 1017.79 1018.06 1018.46 1018.45 1018.32 1018.33 1018.22 1018.20 1018.25 1018.28 1018.36 1018.40 1018.36 1018.39 1018.46 1018.42 1018.40 1018.33 1018.28 1018.00 1017.89 1017.64 1017.38 1017.26 1016.96 1016.45 1016.31 1016.09 1015.34 1016.07 1016.11 1016.83 1017.16 1017.41 1017.62 1017.77 1017.94 1018.14
1018.36 1018.49 1018.43 1018.28 1017.93 1018.05 1018.19 1018.45 1018.45 1018.24 1018.31 1018.38 1018.33 1018.16 1018.01 1017.03 1017.55 1017.75 1018.24 1018.39 1018.49 1018.41 1018.22 1018.13 1018.01 1017.78 1017.37 1017.06 1016.77 1016.34 1015.93 1015.38 1014.92 1014.73 1015.27 1016.12 1016.65 1017.01 1017.28 1017.42 1017.55 1017.67 1017.75
1018.63 1018.77 1018.49 1018.15 1018.07 1017.63 1017.68 1018.07 1017.75 1017.83 1017.50 1017.49 1017.59 1017.26 1016.91 1017.09 1017.37 1017.19 1017.78 1018.15 1018.16 1017.96 1017.86 1017.71 1017.55 1017.26 1016.80 1015.58 1016.07 1015.90 1015.16 1014.46 1014.05 1014.00 1014.84 1015.67 1016.34 1016.78 1016.98 1017.17 1017.30 1017.45 1017.59
1018.23 1018.21 1018.31 1018.37 1017.43 1017.18 1017.42 1018.01 1017.92 1017.34 1017.25 1018.01 1018.30 1017.70 1017.58 1017.43 1017.43 1017.34 1017.62 1017.56 1017.46 1017.42 1017.22 1017.17 1016.88 1016.47 1015.75 1015.90 1015.60 1015.00 1014.74 1014.42 1013.83 1013.69 1015.05 1015.64 1016.15 1016.62 1016.84 1016.87 1016.95 1017.03 1017.09
1017.34 1017.49 1017.87 1017.57 1017.46 1017.92 1018.25 1018.05 1017.41 1017.28 1017.37 1017.55 1018.02 1018.25 1017.76 1017.99 1017.16 1017.27 1017.22 1017.15 1017.16 1017.09 1016.81 1016.52 1016.15 1016.17 1016.41 1016.23 1015.63 1015.33 1014.82 1014.25 1013.75 1013.86 1014.80 1015.17 1015.72 1016.17 1016.43 1016.56 1016.66 1016.77 1016.92
1017.16 1016.90 1016.95 1017.39 1018.46 1018.77 1018.71 1018.03 1017.42 1017.36 1017.40 1017.58 1017.46 1018.16 1017.91 1018.09 1018.35 1018.07 1017.29 1017.17 1017.00 1016.74 1016.84 1016.74 1016.84 1016.59 1016.42 1015.84 1015.30 1015.50 1015.30 1014.89 1014.56 1014.21 1013.83 1014.93 1015.34 1015.74 1016.03 1016.19 1016.32 1016.39 1016.33
1016.51 1016.93 1016.69 1017.64 1018.61 1018.52 1018.26 1018.69 1018.28 1017.96 1017.82 1017.46 1017.44 1017.85 1017.96 1017.86 1018.25 1018.18 1017.92 1016.93 1016.78 1016.64 1016.75 1016.91 1017.10 1016.88 1016.35 1015.47 1015.34 1015.36 1015.44 1015.05 1014.81 1014.80 1014.02 1014.76 1015.07 1015.20 1015.47 1015.69 1015.88 1015.89 1015.84
1016.33 1016.14 1016.51 1017.28 1018.03 1018.23 1018.45 1018.92 1018.24 1017.72 1017.52 1017.56 1017.40 1017.69 1017.87 1017.93 1017.90 1017.82 1016.85 1017.07 1016.33 1016.78 1017.09 1016.63 1016.68 1016.02 1015.86 1015.39 1015.17 1015.07 1015.00 1014.71 1014.65 1014.80 1014.62 1014.08 1014.66 1014.85 1015.06 1015.47 1015.58 1015.58 1015.43
1015.33 1015.83 1016.46 1016.90 1017.29 1017.76 1018.25 1018.37 1017.87 1017.57 1017.60 1017.34 1017.17 1017.16 1017.45 1017.39 1017.26 1017.26 1016.93 1016.51 1017.12 1016.97 1017.10 1016.22 1016.23 1016.04 1015.89 1015.66 1015.46 1014.99 1014.89 1014.74 1014.82 1014.64 1014.28 1014.25 1014.19 1013.93 1014.78 1015.06 1015.10 1015.02 1014.86
1014.95 1015.61 1016.33 1016.80 1016.99 1017.46 1017.90 1017.98 1017.93 1017.90 1017.87 1017.26 1017.08 1016.91 1017.00 1017.33 1017.35 1017.32 1016.70 1016.59 1017.10 1017.05 1016.70 1016.37 1016.27 1016.03 1015.84 1015.84 1015.26 1014.81 1014.73 1014.58 1014.60 1014.07 1014.38 1014.39 1014.05 1014.15 1013.97 1014.35 1014.52 1014.42 1014.26
1014.83 1015.65 1016.32 1016.66 1017.05 1017.25 1017.43 1017.87 1017.81 1017.50 1017.39 1017.09 1016.83 1016.67 1017.00 1016.99 1017.32 1017.24 1016.71 1016.71 1017.33 1016.55 1016.42 1016.32 1016.58 1016.17 1016.13 1015.63 1015.11 1014.36 1014.50 1014.20 1014.15 1014.14 1013.81 1013.56 1013.34 1013.93 1013.79 1014.18 1014.32 1013.69 1013.80
1014.42 1015.20 1015.88 1016.49 1016.83 1017.32 1017.43 1017.44 1017.24 1016.95 1016.76 1016.64 1016.62 1016.81 1017.04 1016.99 1016.78 1017.00 1016.27 1016.16 1016.25 1016.46 1016.46 1016.79 1016.73 1016.40 1015.79 1015.40 1015.44 1014.37 1013.87 1013.75 1013.34 1013.42 1013.16 1013.17 1013.37 1013.37 1013.62 1013.85 1013.84 1013.64 1013.31
1013.77 1014.69 1015.55 1016.13 1016.61 1016.98 1017.08 1017.06 1016.92 1016.74 1016.45 1016.29 1016.33 1016.65 1016.90 1016.90 1016.88 1016.80 1016.66 1016.46 1016.30 1016.38 1016.70 1016.91 1016.91 1016.08 1015.41 1015.34 1015.54 1014.92 1013.93 1013.48 1013.03 1014.03 1013.11 1013.24 1013.01 1013.04 1013.25 1013.17 1013.08 1012.95 1012.76
1013.28 1014.01 1014.72 1015.54 1016.04 1016.57 1016.85 1016.82 1016.91 1017.18 1017.10 1016.88 1016.55 1016.36 1016.12 1016.39 1016.67 1016.75 1016.66 1016.63 1016.80 1016.84 1016.02 1016.61 1016.68 1016.45 1015.61 1015.07 1015.11 1015.30 1014.72 1014.06 1014.25 1013.94 1013.38 1012.97 1012.63 1012.81 1012.87 1012.34 1012.15 1011.97 1011.99
1012.37 1013.15 1014.07 1014.89 1015.55 1016.05 1016.47 1016.53 1016.32 1016.32 1016.15 1015.80 1015.65 1015.56 1015.71 1016.07 1016.34 1016.34 1016.42 1016.45 1016.44 1016.33 1016.18 1016.19 1016.22 1016.19 1015.86 1015.29 1014.93 1014.54 1014.68 1014.59 1014.73 1014.16 1013.43 1012.99 1012.52 1012.44 1012.23 1012.21 1011.80 1011.26 1010.98
1011.59 1012.31 1013.21 1014.17 1015.03 1015.50 1015.90 1016.26 1016.09 1016.28 1016.00 1015.91 1015.78 1015.71 1015.82 1016.10 1016.00 1015.91 1016.00 1016.17 1016.42 1016.48 1016.23 1016.42 1016.38 1016.20 1016.01 1015.59 1014.94 1014.26 1013.90 1013.99 1014.13 1014.14 1013.69 1013.08 1012.48 1012.47 1012.13 1011.89 1011.75 1011.00 1010.34
1010.78 1011.53 1012.34 1013.50 1014.39 1015.09 1015.52 1015.92 1016.12 1015.87 1015.93 1015.66 1015.34 1015.33 1015.16 1015.04 1014.98 1014.86 1015.39 1015.90 1016.16 1016.22 1016.24 1016.25 1015.94 1016.07 1015.86 1015.76 1015.49 1015.05 1014.40 1013.91 1013.53 1013.49 1013.15 1012.75 1012.31 1011.89 1011.68 1011.34 1010.52 1010.26 1009.88
Wind_Speed
3 2 11 15 16 16 15 15 15 15 15 13 13 13 15 15 14 14 13 14 12 15 14 15 15 14 15 14 14 13 11 12 13 10 14 17 13 8 6 8 7 11 12
2 4 12 15 16 16 15 14 14 13 14 13 12 13 14 14 14 13 13 14 14 15 15 15 14 13 14 14 14 13 10 9 9 9 11 17 14 8 6 11 9 10 12
3 6 15 15 15 15 14 14 13 12 13 12 11 13 13 13 14 15 15 14 14 15 14 14 14 13 13 12 12 12 10 5 2 8 11 12 14 10 6 8 10 11 11
5 2 12 14 14 14 13 12 12 12 12 13 12 13 12 13 13 14 14 14 14 14 14 13 13 12 12 11 9 9 8 2 5 9 8 8 15 11 8 8 8 9 7
8 10 12 13 14 14 12 11 12 11 11 11 12 12 12 11 11 14 13 13 15 14 13 12 10 9 8 8 6 5 2 5 7 12 10 6 12 12 8 5 8 7 7
10 14 13 13 14 14 13 12 12 12 11 11 11 11 11 9 12 13 13 13 13 12 10 9 8 8 7 6 5 4 3 6 12 3 8 6 12 11 8 6 7 7 6
7 12 11 12 12 13 12 12 12 11 11 10 10 12 11 12 12 12 12 11 10 9 8 7 6 5 4 4 3 4 4 9 8 4 6 8 10 9 8 7 6 5 5
12 3 12 11 11 11 11 11 11 10 10 10 10 11 11 11 10 11 10 8 8 6 5 4 4 3 3 4 4 4 7 10 10 9 3 8 14 10 7 6 7 6 6
10 7 7 7 11 10 10 10 10 9 10 9 11 9 10 10 9 8 7 6 5 3 2 2 1 1 2 4 6 7 11 11 13 3 4 8 13 11 8 6 9 7 7
6 8 4 3 10 11 10 9 9 9 9 9 9 9 9 9 8 7 6 5 2 0 2 2 3 3 5 7 9 10 13 14 12 6 8 7 13 11 9 8 8 8 7
5 5 3 6 6 8 9 9 7 9 10 10 8 9 11 7 10 12 8 5 0 2 3 5 7 8 11 13 13 14 14 7 9 1 5 14 11 10 9 9 9 9 10
5 4 4 3 8 8 9 8 10 7 6 3 4 4 6 6 7 7 6 7 7 8 9 10 10 13 13 10 9 15 8 6 6 2 8 14 11 9 9 9 9 9 10
12 9 8 6 6 2 6 4 2 2 4 5 2 5 5 4 2 3 4 3 6 11 6 11 8 10 5 4 8 8 8 8 5 3 12 12 10 7 8 10 10 11 11
15 13 12 10 5 6 1 4 3 5 4 2 7 7 4 3 3 4 1 1 0 5 5 6 1 8 7 6 8 7 9 8 5 4 11 14 12 9 8 9 10 11 11
15 17 13 9 6 2 4 3 4 2 5 2 5 6 4 6 5 8 5 5 3 6 3 2 4 4 6 7 4 6 9 9 8 6 1 13 12 11 10 10 10 12 13
14 11 12 13 9 7 3 2 4 2 4 2 3 5 2 3 1 3 4 8 3 5 7 5 6 5 6 6 6 5 7 7 5 7 7 6 11 12 11 10 10 11 12
12 15 14 10 12 7 4 4 6 3 1 2 1 3 2 4 4 6 3 4 2 3 3 6 3 6 5 6 5 6 6 3 5 4 6 1 8 11 11 7 6 7 10
15 14 12 11 12 9 8 7 5 2 4 3 2 3 2 5 6 5 5 2 3 1 5 5 3 3 5 6 5 4 2 4 3 4 3 5 5 4 10 9 8 9 10
14 13 13 11 10 11 9 6 5 3 6 4 4 4 4 6 6 7 7 5 5 4 6 3 4 4 3 4 7 1 2 1 6 4 1 3 4 4 4 8 10 12 12
15 14 13 11 11 9 6 6 6 5 5 6 5 5 5 5 5 5 8 5 2 6 7 5 3 4 5 4 8 3 4 5 5 6 5 7 3 3 4 7 7 8 8
15 16 15 13 10 9 8 8 7 7 6 6 6 6 6 6 6 4 7 6 3 3 5 3 5 7 7 1 8 6 6 8 9 8 5 5 6 6 7 6 7 6 8
17 17 16 14 13 11 9 7 7 6 6 6 6 5 6 7 6 6 5 6 3 6 2 5 6 8 5 3 5 7 7 6 2 11 9 5 9 3 9 9 8 8 7
16 17 17 15 14 13 12 8 7 7 7 8 8 8 8 7 5 6 6 6 6 5 5 5 6 7 8 7 5 5 7 8 9 9 11 10 6 8 8 11 11 7 8
17 16 16 16 15 13 13 11 10 9 8 7 7 6 3 4 6 7 7 6 6 7 7 5 7 7 6 8 8 6 6 7 5 9 8 10 9 6 6 11 11 10 6
16 15 15 14 14 14 13 13 10 10 9 8 8 7 3 6 8 9 5 6 6 6 7 6 9 8 8 9 10 10 9 6 10 10 8 8 9 4 7 11 9 11 10
16 16 15 15 13 14 13 14 13 10 9 9 6 6 7 6 5 8 5 6 6 6 5 6 7 8 6 7 9 11 12 8 6 7 7 11 12 9 8 11 10 11 8
Wind_Direction
18 108 122 115 117 120 117 111 105 107 110 110 102 96 94 96 89 88 88 89 92 100 95 91 91 91 95 95 97 98 100 101 105 115 109 100 92 81 53 31 15 93 98
104 145 123 121 118 118 114 111 107 103 106 105 105 103 99 99 99 98 99 91 87 95 94 93 90 86 86 88 92 96 89 93 115 127 120 107 100 78 50 65 105 89 92
162 178 127 119 116 114 114 111 111 110 105 104 104 99 98 104 96 97 94 91 87 89 89 96 98 95 90 86 89 92 91 83 156 172 184 140 105 107 77 52 74 71 82
125 212 117 114 115 115 115 115 114 110 109 102 102 102 100 96 101 101 98 100 99 96 97 97 96 94 92 87 85 88 86 64 293 273 212 138 105 110 95 81 70 76 87
164 144 117 118 116 117 116 114 115 112 106 103 103 105 104 108 109 99 100 95 93 92 92 93 91 88 83 81 73 66 55 291 288 285 95 1 100 114 111 110 133 103 53
153 123 116 113 115 113 115 117 113 111 116 114 116 120 106 112 103 106 102 97 94 91 89 87 83 81 81 78 71 44 13 299 277 135 113 117 77 116 117 110 89 97 110
62 94 112 109 109 114 117 118 117 121 118 118 106 106 105 97 99 101 104 101 98 96 96 88 81 66 60 61 55 6 328 294 280 45 105 87 99 127 135 133 130 129 140
104 137 115 110 117 115 118 121 125 121 118 117 106 102 103 101 102 106 105 103 104 105 103 93 72 43 24 7 341 325 298 284 286 108 321 115 126 139 151 161 163 156 164
107 59 67 108 118 115 114 120 114 115 115 121 119 115 117 117 120 117 110 109 107 107 118 111 97 348 322 312 300 291 278 283 335 307 240 118 139 152 171 188 180 177 185
74 82 76 188 152 118 135 108 116 116 120 123 126 136 143 139 147 150 158 121 73 4 300 281 250 253 250 243 247 258 262 267 234 236 38 107 142 162 176 188 191 197 204
70 66 55 96 114 137 123 126 137 144 145 141 152 180 187 167 175 165 95 102 156 285 270 272 279 265 253 248 233 234 248 246 213 277 133 136 145 174 190 197 206 209 210
123 111 117 108 154 175 136 168 169 150 183 116 92 226 211 42 31 33 134 178 209 224 232 225 233 245 254 256 202 231 244 336 286 233 119 138 152 185 199 211 218 225 227
180 156 135 209 215 178 114 12 301 269 107 97 40 346 46 20 55 221 164 176 205 221 207 216 224 227 26 335 322 330 339 276 302 338 116 134 150 190 220 223 229 230 231
179 162 179 193 134 76 3 357 268 151 168 108 68 8 16 306 354 0 51 327 25 329 347 314 288 16 306 307 285 310 284 306 345 326 131 145 156 186 219 236 239 246 250
177 181 169 126 89 145 235 284 14 44 20 107 164 94 26 22 359 332 11 313 319 231 201 264 322 321 290 261 323 332 316 323 319 287 118 150 157 176 206 228 246 254 251
180 203 171 149 171 176 201 214 287 26 164 28 23 52 11 358 67 308 287 311 184 11 353 333 354 307 325 314 305 312 304 283 290 307 327 147 170 187 203 220 237 248 253
180 191 182 173 174 180 195 225 246 184 332 242 51 186 335 310 352 297 309 298 315 59 263 217 280 261 286 297 309 300 285 274 282 324 283 214 193 190 200 205 232 251 260
185 175 187 185 176 181 193 212 263 350 296 287 300 302 25 312 323 307 301 295 76 5 298 301 308 332 319 327 304 295 305 268 77 232 31 320 11 350 164 192 209 238 246
193 185 191 197 204 188 202 235 232 256 252 283 306 312 10 316 340 312 317 333 346 255 261 261 268 309 307 280 279 329 299 65 222 100 128 271 188 298 329 168 199 240 240
192 189 200 203 214 211 229 216 259 267 261 262 267 286 330 329 300 309 307 295 287 257 242 251 356 313 302 281 305 304 265 267 200 237 284 257 11 292 296 338 331 308 204
189 197 199 205 208 212 211 226 230 248 250 258 268 274 286 278 284 282 296 341 273 244 310 308 267 230 287 7 290 313 284 200 224 237 251 293 318 274 345 302 282 325 307
190 193 202 211 208 210 215 231 252 266 268 288 294 312 280 287 295 286 318 320 327 313 220 257 265 297 240 189 298 318 297 302 165 249 330 283 263 288 287 278 281 275 290
196 199 201 206 210 211 228 218 230 247 254 260 258 247 233 233 274 285 295 300 309 281 259 208 230 262 296 319 249 277 297 311 323 316 314 292 306 279 287 284 290 277 270
196 193 201 202 209 213 214 235 222 246 249 252 256 258 313 285 257 275 275 278 278 288 313 246 234 261 277 275 295 251 230 267 271 279 288 286 281 268 279 295 302 285 288
193 194 193 194 203 216 203 228 226 225 251 250 259 272 236 275 264 266 283 291 268 262 273 268 293 275 283 285 284 274 281 223 223 236 253 267 290 257 240 258 269 289 283
194 194 189 186 195 202 212 209 236 249 231 261 252 266 257 291 274 238 224 268 268 264 277 270 277 266 268 291 302 311 292 282 263 292 293 299 292 295 310 289 282 274 307